TimeCST,TemperatureF,Dew PointF,Humidity,Sea Level PressureIn,VisibilityMPH,Wind Direction,Wind SpeedMPH,Gust SpeedMPH,PrecipitationIn,Events,Conditions,WindDirDegrees,DateUTC
12:53 AM,46.9,28.9,50,30.39,10.0,SE,8.1,-,N/A,,Clear,140,2012-11-17 06:53:00
1:53 AM,46.0,28.9,51,30.38,10.0,SSE,6.9,-,N/A,,Clear,150,2012-11-17 07:53:00
2:53 AM,42.1,28.9,60,30.39,10.0,SSE,5.8,-,N/A,,Clear,150,2012-11-17 08:53:00
3:53 AM,41.0,28.9,62,30.39,10.0,SSE,5.8,-,N/A,,Clear,150,2012-11-17 09:53:00
4:53 AM,39.0,28.0,65,30.39,10.0,SSE,3.5,-,N/A,,Clear,150,2012-11-17 10:53:00
5:53 AM,39.0,28.0,65,30.40,10.0,Calm,Calm,-,N/A,,Clear,0,2012-11-17 11:53:00
6:53 AM,35.1,28.0,76,30.43,10.0,SE,4.6,-,N/A,,Clear,140,2012-11-17 12:53:00
7:53 AM,39.0,28.9,67,30.44,10.0,SE,5.8,-,N/A,,Clear,130,2012-11-17 13:53:00
8:53 AM,45.0,30.9,58,30.44,10.0,South,5.8,-,N/A,,Clear,170,2012-11-17 14:53:00
9:53 AM,51.1,30.9,46,30.44,10.0,SSE,6.9,-,N/A,,Clear,160,2012-11-17 15:53:00
10:53 AM,55.0,30.0,38,30.43,10.0,South,10.4,-,N/A,,Clear,170,2012-11-17 16:53:00
11:53 AM,59.0,26.1,28,30.40,10.0,South,10.4,-,N/A,,Clear,180,2012-11-17 17:53:00
12:53 PM,60.1,27.0,28,30.37,10.0,South,9.2,-,N/A,,Clear,170,2012-11-17 18:53:00
1:53 PM,62.1,28.9,29,30.34,10.0,SSE,10.4,18.4,N/A,,Clear,160,2012-11-17 19:53:00
2:53 PM,62.1,30.9,31,30.32,10.0,South,6.9,-,N/A,,Clear,170,2012-11-17 20:53:00
3:53 PM,61.0,30.0,31,30.31,10.0,South,11.5,-,N/A,,Clear,170,2012-11-17 21:53:00
4:53 PM,55.0,30.9,40,30.30,10.0,South,9.2,-,N/A,,Clear,170,2012-11-17 22:53:00
5:53 PM,55.0,28.9,37,30.32,10.0,South,4.6,-,N/A,,Clear,180,2012-11-17 23:53:00
6:53 PM,48.9,30.0,48,30.33,10.0,SE,3.5,-,N/A,,Clear,130,2012-11-18 00:53:00
7:53 PM,50.0,30.0,46,30.32,10.0,SE,4.6,-,N/A,,Clear,130,2012-11-18 01:53:00
8:53 PM,48.0,30.0,50,30.32,10.0,SE,6.9,-,N/A,,Clear,130,2012-11-18 02:53:00
9:53 PM,48.0,28.9,48,30.30,10.0,SE,6.9,-,N/A,,Clear,140,2012-11-18 03:53:00
10:53 PM,46.9,28.9,50,30.32,10.0,SE,5.8,-,N/A,,Clear,140,2012-11-18 04:53:00
11:53 PM,43.0,28.9,58,30.33,10.0,SE,5.8,-,N/A,,Clear,140,2012-11-18 05:53:00